Wind_Gust
12 11 11 11 11 12 12 12 13 13 13 13 13 13 13 13 14 14 14 18 17 18 18 18 20 19 19 20 21 22 23 24 21 21 21 23 24 22 21 24 25 24 24 22 14 14 15 17 18 18 16 16 16 17 17 17 17 18 18 17 19 18 17 17 18 17 10 6 11 16 15 18 19 20 20 18 15 19 15 17 17 18 18 17 18
13 11 10 10 10 9 10 9 12 12 12 13 13 12 12 15 15 14 16 17 18 18 18 17 19 19 19 21 20 21 23 24 23 23 24 25 25 22 22 23 23 24 24 24 24 17 12 15 18 17 17 18 18 17 17 18 18 17 18 19 20 19 19 24 21 18 18 6 7 6 10 17 22 17 22 21 18 19 19 16 14 17 18 16 16
12 11 11 11 10 10 10 9 9 11 11 12 14 14 13 14 16 17 18 17 17 17 19 19 20 21 21 24 23 23 23 23 26 27 26 24 25 24 23 22 22 22 23 25 25 24 18 15 16 16 16 19 18 18 17 18 18 19 19 18 19 19 18 19 19 18 16 17 11 11 13 14 21 21 20 21 22 24 22 20 19 17 16 16 18
12 11 11 12 11 12 13 12 12 12 14 14 14 13 14 14 15 17 16 16 18 17 19 19 21 21 24 26 25 24 22 28 30 29 26 24 25 25 24 23 22 21 22 23 25 25 23 18 16 14 15 17 18 17 16 16 18 18 19 19 19 20 19 20 20 18 17 15 12 16 15 16 19 14 18 17 21 23 25 21 16 18 17 17 17
11 11 11 12 12 12 11 13 14 15 15 16 15 14 13 13 14 16 16 16 15 16 18 18 20 24 23 24 24 23 24 28 30 29 27 26 25 24 23 22 21 22 22 22 22 25 24 22 18 15 14 15 16 17 18 18 17 18 18 19 19 18 19 20 20 16 11 15 16 14 10 12 13 13 17 21 13 16 15 19 23 21 17 15 15
9 11 11 12 12 12 11 11 13 14 14 15 15 15 15 14 14 14 15 15 14 16 18 18 26 25 24 22 23 22 24 22 22 24 25 26 25 24 24 23 21 22 22 22 22 22 23 24 22 16 15 17 17 18 18 19 18 18 18 19 19 17 18 17 17 17 17 18 14 15 13 14 10 12 17 18 23 23 18 11 11 14 15 13 15
9 9 10 10 12 13 13 12 10 11 12 12 13 14 15 15 16 16 15 14 15 16 18 19 19 19 22 23 22 21 19 20 23 25 25 25 25 25 25 23 22 22 21 23 23 24 23 23 23 20 17 16 17 17 17 17 19 18 19 19 19 18 19 19 19 19 19 19 17 18 18 15 15 17 15 16 17 19 24 15 14 15 17 19 19
8 9 9 11 12 11 11 10 10 10 8 9 10 12 13 15 16 15 14 15 16 16 20 19 17 18 19 17 16 15 19 22 24 26 27 26 26 26 25 24 23 22 22 24 23 24 24 25 24 23 19 17 17 18 18 18 17 19 19 19 18 20 20 19 20 22 21 19 21 20 20 20 14 7 12 15 16 11 21 27 27 23 21 20 21
9 9 11 13 11 10 10 10 10 10 9 8 9 11 12 12 14 15 16 16 16 16 16 16 15 16 15 15 15 15 17 22 26 29 28 28 27 24 24 24 24 22 23 23 23 24 24 24 24 23 21 22 18 16 15 15 19 20 20 19 19 20 20 19 20 21 20 19 17 16 20 19 20 18 19 22 27 31 29 20 23 20 20 17 16
11 11 13 12 11 11 11 10 12 12 14 13 10 8 9 11 14 16 16 15 15 15 14 14 14 15 15 15 14 15 18 20 32 33 27 30 27 26 25 25 24 23 23 24 22 21 22 24 26 27 26 23 21 21 20 19 19 20 20 18 20 20 21 20 20 23 22 23 22 22 21 21 22 24 26 27 26 16 16 20 21 17 14 15 11
12 13 14 12 12 12 11 10 10 14 13 14 12 12 10 10 13 14 15 14 14 14 14 15 16 15 16 16 16 16 17 25 30 26 27 32 28 24 23 24 23 23 23 25 25 25 24 25 23 24 22 19 21 21 21 21 21 22 24 20 17 22 21 22 21 21 24 23 22 23 24 22 22 23 26 25 22 25 28 27 22 19 24 23 26
13 13 13 13 12 12 11 10 9 10 12 14 14 13 11 8 11 14 14 13 13 11 14 15 15 15 16 16 16 17 16 22 26 28 28 30 29 27 21 23 23 23 25 24 24 24 27 28 27 26 26 29 30 22 21 22 22 22 23 23 23 21 19 23 21 23 23 21 22 23 24 25 24 23 23 20 22 23 22 24 24 24 24 25 24
12 13 12 12 12 12 10 11 8 8 9 9 11 13 13 11 9 13 15 12 9 13 13 14 15 15 16 16 17 17 16 21 26 28 29 30 30 25 21 22 23 22 23 23 21 23 23 25 26 27 29 31 33 29 23 19 19 24 23 23 22 22 21 21 20 23 21 23 25 24 26 24 24 24 25 28 25 27 24 24 24 24 26 27 25
12 11 11 11 11 10 10 9 9 7 6 7 8 11 13 14 9 7 10 11 11 12 11 13 13 15 16 15 15 15 15 20 26 29 29 30 30 23 19 22 22 22 23 23 22 23 22 22 25 25 26 29 28 30 31 30 23 18 19 17 21 22 20 23 23 23 22 24 23 25 22 21 27 23 25 23 26 27 28 29 28 27 25 29 21
10 9 10 9 9 9 9 8 8 8 8 7 8 9 10 10 10 9 10 10 10 11 11 10 12 12 13 14 14 17 18 22 24 28 29 30 29 19 20 21 22 22 23 22 21 21 23 23 21 22 24 24 23 29 29 29 28 25 19 20 24 23 22 21 23 23 22 21 21 21 22 21 17 11 10 13 23 30 32 34 33 31 23 8 16
9 8 8 7 7 7 8 8 7 7 8 9 9 8 8 8 9 8 9 10 8 8 9 9 11 12 12 13 14 17 18 21 25 27 29 29 28 22 21 22 23 24 26 23 23 22 21 21 23 23 25 26 25 29 28 27 25 24 23 20 20 19 17 15 18 22 24 23 23 22 21 19 16 17 19 22 19 13 13 15 19 18 17 11 18
8 7 7 6 6 6 6 7 7 7 7 9 10 9 7 8 8 7 9 8 9 10 10 11 10 11 13 14 16 17 17 21 25 27 27 30 24 23 24 23 24 24 24 24 22 22 21 24 24 25 26 26 28 30 27 23 22 22 23 20 18 14 13 10 6 11 15 20 21 18 15 17 18 18 21 25 21 19 16 19 22 19 22 19 18
6 7 6 5 5 6 6 7 7 7 7 9 10 10 9 7 7 7 8 9 10 10 9 12 12 12 13 15 17 17 18 20 24 26 27 28 25 24 26 25 25 26 24 21 21 21 23 30 29 24 27 30 30 29 26 23 21 21 21 22 17 13 14 7 6 6 6 9 11 17 18 18 19 19 20 22 25 21 25 28 26 23 25 22 25
7 7 5 4 5 6 6 7 7 7 8 8 10 10 11 10 7 8 9 8 8 8 10 12 13 13 13 13 15 17 17 18 23 26 28 27 30 23 25 26 26 26 26 24 21 22 24 22 26 27 28 31 31 29 26 22 20 21 19 20 18 16 17 15 14 14 13 14 13 15 13 13 16 16 14 17 20 19 24 26 22 26 27 25 21
6 6 4 4 5 6 6 8 7 8 9 9 10 10 9 10 13 11 10 10 9 9 8 10 12 14 13 13 16 15 17 18 22 25 27 28 27 29 21 25 28 29 25 26 27 24 24 25 24 25 31 30 28 28 27 25 20 21 18 19 19 22 13 14 14 16 15 14 13 13 15 12 11 10 10 12 12 9 11 12 19 26 26 26 26
5 3 3 3 5 5 6 8 11 8 8 9 8 9 9 10 10 10 11 11 10 11 10 9 12 14 14 14 13 15 18 19 20 23 25 27 28 24 22 23 23 24 23 24 21 23 25 24 24 28 34 32 29 29 29 27 24 21 22 20 22 16 15 13 12 10 15 15 16 16 13 12 11 12 11 10 10 8 6 4 10 18 22 20 19
8 7 6 3 2 4 6 7 8 10 7 9 10 9 7 8 8 9 10 10 11 12 11 11 11 13 13 14 13 14 15 20 19 20 24 25 25 27 24 22 24 23 24 22 22 23 23 25 25 29 32 31 30 29 31 30 29 20 20 17 14 19 20 15 17 17 15 16 17 17 17 17 17 15 14 14 12 10 10 11 12 12 7 8 24
10 9 9 8 3 2 6 7 8 9 8 7 8 8 7 9 9 9 9 9 10 11 11 11 11 13 13 14 12 14 15 16 19 20 22 24 25 24 25 23 24 22 21 23 24 24 21 23 25 29 30 31 29 29 31 33 23 24 22 16 21 22 17 16 17 19 17 15 16 18 16 16 18 17 17 16 15 15 17 13 17 15 17 16 17
10 11 10 9 7 3 5 7 7 7 7 6 7 9 8 7 8 9 8 9 10 11 12 12 12 13 15 16 15 14 15 15 15 19 21 24 24 23 23 25 25 23 21 19 21 22 23 23 24 28 28 29 29 28 30 31 32 33 33 30 22 17 19 18 16 17 17 17 17 17 17 15 17 18 17 15 16 17 19 18 17 17 22 22 20
11 12 11 11 10 5 6 7 6 6 6 6 7 7 7 7 10 8 8 9 9 10 11 11 12 13 14 16 16 16 16 15 16 18 20 22 22 22 23 23 25 24 24 22 21 23 22 25 26 25 26 28 27 26 24 28 33 34 36 32 25 20 15 18 19 17 17 16 17 16 15 14 16 17 14 17 17 17 20 18 17 18 19 23 21
11 9 10 10 9 6 8 7 6 6 6 7 6 6 7 6 7 8 8 8 7 9 10 10 12 13 14 15 16 16 16 16 17 19 14 16 14 19 21 21 23 24 22 21 23 23 23 24 25 23 20 24 27 26 25 29 29 33 34 31 29 27 22 17 20 24 22 17 15 17 16 14 14 12 12 14 19 17 16 17 19 16 15 20 25
10 10 9 9 8 8 7 6 6 6 5 5 8 6 5 7 5 5 5 7 7 8 8 9 12 13 15 16 15 15 16 17 19 19 19 18 18 17 18 19 18 18 21 23 19 22 24 23 22 21 21 24 25 22 24 27 32 31 29 29 29 28 25 22 22 24 21 20 16 15 13 13 13 16 17 18 19 15 11 15 20 15 17 17 24
10 9 9 6 6 6 7 5 6 4 4 5 7 6 6 3 6 3 3 3 4 8 6 10 10 12 14 15 15 15 17 17 21 22 22 20 18 16 15 16 19 17 21 21 20 20 22 16 22 24 26 28 28 27 27 25 25 26 27 26 28 27 26 21 22 25 21 18 17 14 15 15 18 15 16 18 17 14 11 15 16 16 11 17 27
8 8 9 11 11 7 5 6 4 6 3 5 4 3 2 3 5 2 6 6 4 2 7 8 8 8 11 13 14 15 16 19 20 14 21 19 22 18 16 17 15 17 18 20 20 20 22 24 25 27 26 25 25 26 26 26 26 27 28 29 27 28 26 24 26 24 21 23 21 17 17 16 17 15 16 19 17 14 10 17 15 17 14 19 23
8 7 6 9 9 9 7 7 5 3 3 4 4 2 5 4 3 4 4 6 8 9 6 6 7 7 10 12 8 8 11 13 15 20 21 22 22 21 17 18 17 17 19 19 16 20 22 22 23 23 23 23 24 24 24 23 23 24 24 21 26 26 25 23 22 20 20 21 19 20 18 17 18 17 18 18 17 17 15 13 16 16 21 20 22
8 7 8 7 6 6 5 7 5 5 4 2 2 2 5 5 3 6 4 7 7 8 8 11 11 7 4 7 13 12 12 16 18 18 21 22 22 21 19 19 21 18 18 20 21 22 22 22 22 22 22 21 21 21 21 22 22 21 21 20 22 23 22 23 22 20 21 20 20 18 18 18 17 17 19 17 17 17 18 15 16 19 20 19 20
7 4 4 5 8 6 5 4 4 8 6 5 4 3 5 4 6 5 8 8 8 8 10 12 12 11 10 7 7 10 12 15 18 19 21 22 22 21 20 21 21 20 16 12 19 22 20 20 20 21 20 21 20 19 20 20 20 20 20 22 22 20 20 21 19 18 18 19 19 20 20 20 19 18 17 16 16 17 16 17 18 19 19 20 19
7 5 5 5 5 6 6 6 5 6 6 7 8 4 7 6 6 7 7 6 9 11 12 12 12 10 10 10 10 8 9 13 17 19 21 22 22 21 19 21 20 20 15 17 18 19 20 20 21 20 20 20 20 19 19 19 19 19 19 20 20 20 19 19 18 19 17 17 17 17 16 16 15 15 15 15 16 16 16 16 15 16 16 18 16
5 6 4 4 6 8 7 4 5 6 4 4 4 4 3 4 3 2 5 11 10 6 6 10 10 9 10 9 10 10 12 15 16 18 20 21 21 19 16 20 18 18 15 16 16 17 17 18 19 19 19 19 19 19 20 19 18 18 18 18 18 17 18 17 20 20 17 18 18 17 17 16 15 15 14 14 13 13 14 12 12 14 13 13 13
4 5 5 4 5 5 4 4 5 6 8 7 6 4 3 3 2 2 3 4 5 3 4 8 9 6 7 8 11 11 12 14 15 17 19 19 19 20 16 19 19 20 19 16 16 15 16 16 16 17 17 17 17 17 18 18 18 18 18 18 18 18 18 18 18 18 19 18 18 16 14 15 14 14 14 14 14 14 13 13 13 12 13 12 12
3 4 2 2 3 3 4 4 4 6 4 4 4 4 3 4 4 3 2 2 3 3 3 3 4 7 9 11 13 11 12 13 15 16 17 18 16 15 18 17 16 16 15 15 14 13 12 12 11 12 13 13 14 15 15 16 16 16 15 15 16 15 16 17 17 16 16 18 18 18 16 17 16 15 14 15 13 13 12 12 12 11 12 11 10
5 5 2 1 1 2 3 3 4 6 5 4 6 5 5 5 4 4 4 4 4 2 1 4 8 10 9 8 9 10 12 13 14 15 16 17 17 15 14 13 14 14 15 15 14 13 12 12 10 10 11 10 10 10 11 12 13 14 12 14 13 13 14 13 14 13 15 16 15 15 14 14 13 12 11 12 11 12 11 11 11 11 10 10 9
6 7 5 2 1 3 5 4 3 3 4 4 3 4 3 4 4 2 3 5 3 3 2 2 4 4 5 7 7 6 8 10 12 12 12 13 16 15 14 13 13 13 14 13 13 12 12 11 11 11 12 11 12 12 12 11 11 11 12 12 12 12 12 13 12 13 12 13 13 12 11 12 12 12 11 12 10 9 10 9 10 10 9 8 9
5 4 5 5 2 2 3 4 2 3 2 2 2 2 1 1 5 6 4 5 4 4 3 4 2 3 4 3 7 7 9 13 12 12 11 11 11 12 11 13 14 15 15 14 13 13 12 13 12 11 11 12 12 11 10 10 10 10 10 11 12 13 15 13 13 12 12 12 12 11 11 10 10 10 10 10 10 7 7 7 7 7 8 8 7
4 2 5 6 5 3 3 5 6 3 3 2 2 2 1 1 1 3 3 4 5 4 4 2 1 2 2 3 3 7 11 8 7 8 8 10 11 11 11 12 12 12 14 15 14 13 13 13 13 12 13 12 11 11 10 9 9 9 10 11 11 13 13 13 13 13 12 11 11 10 11 10 10 8 9 9 8 7 7 7 6 6 7 8 8
3 2 4 3 5 2 5 4 5 5 6 4 3 2 4 4 2 2 2 3 4 3 3 4 4 4 3 5 5 6 9 5 4 6 6 6 8 9 11 11 11 13 13 12 13 12 12 12 12 12 11 11 10 11 10 10 10 11 11 11 11 11 12 13 13 13 12 11 10 10 10 9 9 9 9 7 6 8 8 8 7 7 7 7 8
3 4 7 3 2 3 4 2 1 2 4 3 2 3 4 3 3 1 2 3 4 3 2 4 4 2 4 9 8 7 7 2 2 4 6 6 6 8 7 8 8 9 9 10 11 11 11 11 11 11 11 11 11 10 10 9 9 10 10 10 11 11 11 12 11 11 11 11 10 10 10 9 8 8 7 5 9 8 9 8 7 7 7 7 7
2 2 2 2 2 3 5 2 1 3 3 6 7 5 3 3 3 3 2 3 2 2 1 1 1 5 7 7 6 5 4 1 2 3 4 4 4 5 6 7 9 9 8 7 8 8 8 8 9 10 10 10 10 9 9 10 9 9 10 9 10 10 10 11 12 13 12 11 11 10 10 9 10 9 8 8 9 9 8 8 8 8 7 6 6
3 3 3 4 5 7 4 4 2 2 2 4 4 4 3 6 5 2 2 2 3 2 2 3 3 7 6 3 2 4 2 1 1 2 3 3 3 4 5 6 7 9 10 10 10 10 8 9 9 9 10 10 10 10 11 10 10 10 10 10 10 11 11 11 11 11 11 11 11 11 10 9 9 9 9 7 8 9 7 7 7 7 7 7 7
5 5 3 3 4 4 1 2 2 2 4 5 9 10 5 6 5 3 1 2 5 4 1 2 3 7 6 3 3 3 2 1 2 2 3 2 2 4 5 5 5 7 8 9 9 9 9 9 9 9 10 9 9 10 10 10 10 9 9 9 9 10 10 10 9 9 8 10 11 10 10 10 10 9 8 7 7 6 7 5 6 6 8 7 9
4 4 3 3 4 3 1 1 3 5 6 6 6 6 2 2 3 1 1 2 3 3 1 2 3 5 8 7 6 4 5 3 4 3 3 4 4 4 4 5 5 5 6 6 7 6 7 7 8 8 7 7 7 8 8 8 8 8 8 7 6 4 5 7 7 8 11 10 9 7 8 9 9 9 7 8 7 7 5 4 4 5 6 6 7
4 4 2 3 6 6 3 2 5 3 5 7 6 6 5 5 4 2 2 3 6 3 3 4 4 5 7 7 7 8 6 4 5 4 5 5 5 6 6 4 4 7 8 8 6 6 6 8 8 7 6 5 6 7 7 7 7 7 6 8 7 8 8 8 8 7 8 8 7 8 8 7 8 8 8 7 8 7 7 7 6 5 4 4 4
4 3 2 3 4 7 4 3 6 3 3 6 6 7 8 6 3 2 2 3 5 4 2 3 3 4 6 7 8 7 7 7 5 5 4 5 6 6 5 4 3 5 6 8 7 8 7 6 5 6 5 5 5 6 6 7 6 7 7 7 7 7 9 7 8 9 8 8 8 7 7 7 7 7 7 8 8 9 11 8 6 5 5 4 3
4 3 2 2 5 9 7 5 8 7 7 7 6 6 7 6 3 3 5 4 5 4 6 7 6 4 6 9 8 9 6 4 6 7 6 8 6 6 6 6 5 4 4 7 9 7 8 7 4 5 3 2 3 4 4 5 6 6 6 7 8 9 8 9 7 9 9 8 7 7 6 7 7 8 8 8 8 8 8 6 5 5 5 5 6
3 4 2 2 5 10 9 8 9 9 6 6 7 7 7 6 5 5 6 3 2 4 4 6 7 6 3 5 7 8 7 8 9 9 9 7 8 6 5 6 6 5 5 6 7 8 8 6 6 4 1 1 2 2 1 2 2 3 3 6 8 8 8 8 8 10 10 7 7 6 6 4 5 7 8 7 6 9 9 7 5 6 6 8 6
3 3 3 2 6 9 9 10 8 8 8 7 7 6 7 7 8 7 6 5 3 2 5 7 6 3 4 6 8 8 9 10 10 10 9 8 8 6 7 6 7 6 7 6 7 7 7 4 5 2 2 2 1 2 2 2 3 2 4 6 7 8 8 8 9 8 9 6 5 7 8 7 7 9 9 8 7 8 6 5 6 6 5 7 6
Wind_Speed
7 6 6 6 7 7 7 7 7 7 7 7 6 6 6 7 8 8 8 10 9 10 10 9 10 10 10 11 11 11 13 12 11 11 11 13 12 11 12 12 12 12 12 13 9 8 9 10 10 10 8 8 8 9 9 10 9 9 9 9 9 9 8 8 9 9 4 2 5 8 9 10 9 11 12 10 8 10 10 10 10 10 10 9 10
7 7 6 6 6 6 6 5 6 6 7 7 7 6 7 8 8 8 9 9 9 10 11 10 10 11 11 12 12 12 13 12 13 12 13 14 14 10 11 13 13 12 11 11 14 10 7 9 9 9 9 10 10 9 8 9 9 9 9 10 10 10 11 10 10 9 9 2 2 3 5 10 10 10 12 12 10 10 11 9 7 9 10 8 9
6 6 6 7 7 7 6 5 5 6 6 6 7 7 6 7 8 8 7 7 8 9 10 10 11 11 12 13 12 12 12 14 14 15 14 13 13 13 12 12 12 12 13 12 12 13 11 8 9 8 8 10 11 10 10 10 10 10 11 9 10 10 10 10 9 9 9 8 6 5 6 7 10 11 12 11 12 13 13 11 10 9 8 9 9
7 7 6 7 6 6 7 6 7 7 8 7 7 6 5 5 6 7 7 7 9 9 10 10 10 11 12 13 13 12 13 11 11 10 12 13 14 14 13 13 12 12 12 13 12 12 13 11 9 8 8 10 10 10 9 8 9 9 11 10 10 12 10 11 12 9 8 8 5 7 7 7 8 7 10 9 11 12 13 11 9 10 9 9 9
6 6 6 6 5 5 5 6 7 8 8 8 8 7 7 6 6 8 7 7 8 9 9 9 10 12 11 12 12 12 11 11 12 12 11 12 14 13 13 13 12 12 12 12 13 12 12 13 11 9 8 9 8 9 9 11 9 9 10 10 10 9 9 10 11 9 6 8 8 6 5 5 5 6 9 10 6 5 6 9 11 9 9 8 7
5 5 4 5 5 6 5 5 7 7 7 7 8 8 8 8 7 7 7 8 8 9 9 8 11 11 12 10 9 9 12 11 12 13 13 12 11 11 12 13 12 12 13 13 13 12 12 13 13 10 9 9 9 10 10 12 11 10 10 10 10 9 10 10 9 10 10 9 8 4 4 6 4 4 9 10 10 10 9 6 6 7 8 6 7
4 4 4 4 5 6 6 5 5 5 5 5 6 7 8 8 8 8 7 7 8 9 9 8 7 8 8 8 8 9 10 12 12 14 14 14 13 13 14 13 13 11 11 13 13 14 13 13 14 12 10 9 10 10 10 10 9 11 10 11 9 10 10 9 9 10 10 9 6 7 9 7 7 7 7 9 9 8 11 7 7 7 8 10 10
3 3 4 5 6 6 6 5 5 5 4 4 5 5 6 8 8 8 7 8 8 8 8 8 7 7 7 7 8 8 10 11 13 14 15 14 13 13 13 13 13 13 13 12 12 12 13 13 14 14 11 11 10 11 11 10 8 10 9 9 9 10 10 10 10 10 9 9 9 8 9 9 6 3 5 8 6 2 8 12 14 12 11 10 11
4 4 5 6 6 5 5 6 6 6 5 4 5 5 6 6 7 7 8 8 7 8 7 8 8 9 8 8 8 8 9 11 12 14 14 15 14 12 13 14 14 13 13 13 11 11 11 12 13 14 14 17 16 13 12 11 10 10 10 11 10 11 9 10 10 10 10 10 9 8 10 9 9 9 10 10 13 15 13 10 10 11 10 9 8
5 6 7 7 6 6 6 6 7 7 7 7 6 5 5 6 7 8 8 7 7 8 8 8 8 9 9 9 8 8 9 9 19 25 20 16 13 12 10 11 13 13 14 14 13 11 11 11 13 20 21 20 18 17 17 16 16 13 10 9 11 10 11 9 10 11 11 12 11 11 11 11 11 12 12 13 13 9 9 10 11 9 7 6 4
6 7 8 7 7 7 6 6 6 8 7 7 7 6 5 5 7 7 7 6 7 7 7 9 9 9 9 9 9 8 8 11 22 20 21 25 17 12 12 12 12 12 12 12 12 13 13 14 13 16 16 16 14 17 18 17 17 17 18 16 14 12 11 12 10 10 11 12 11 10 10 12 12 12 13 13 11 13 13 13 11 9 11 11 11
7 7 7 7 7 7 6 5 5 6 6 7 7 6 5 4 6 7 6 7 6 5 7 8 8 8 8 8 8 8 8 16 20 21 22 23 22 14 10 11 11 11 12 12 11 11 12 12 12 11 13 17 19 14 14 17 17 17 18 18 19 18 15 13 11 10 11 10 11 12 12 13 12 12 12 10 11 11 12 12 12 12 12 12 10
6 7 7 7 7 6 6 5 4 5 5 5 5 5 5 5 5 6 7 5 4 6 6 7 7 7 8 9 9 9 8 16 20 22 22 23 24 18 9 11 11 12 12 13 12 12 11 12 11 10 10 21 17 17 15 12 13 17 18 19 18 19 18 16 15 13 11 11 11 11 12 11 11 11 13 14 13 14 12 11 12 12 13 14 12
6 6 6 6 6 5 5 5 5 4 4 4 4 5 5 6 5 4 5 5 6 6 6 7 7 8 8 8 8 9 9 15 20 21 21 23 22 17 10 11 12 12 13 13 11 11 11 11 13 12 12 13 11 14 16 17 14 11 11 12 13 15 16 17 16 17 16 13 12 13 11 11 13 13 14 14 14 14 14 15 15 14 13 15 12
5 5 5 5 5 5 5 5 5 5 4 4 4 4 5 4 5 5 5 5 5 6 7 6 7 7 7 8 7 9 9 16 19 21 21 22 22 14 11 10 11 11 11 12 12 11 12 10 11 12 12 13 11 16 17 15 15 14 11 11 13 13 12 13 13 12 12 12 12 13 13 13 11 8 7 6 13 16 17 19 18 16 11 4 7
5 4 4 4 4 4 5 4 4 4 5 5 4 4 4 4 5 4 4 5 4 4 6 5 7 7 7 8 8 10 10 17 19 20 22 22 22 12 11 11 12 13 13 13 13 12 12 11 13 12 14 14 17 22 19 14 13 13 13 12 11 11 10 12 15 17 15 13 12 13 12 11 14 11 9 12 11 5 1 5 7 6 7 7 8
4 4 4 4 4 4 4 4 4 4 4 5 6 5 4 5 4 3 5 5 5 6 6 6 6 6 8 8 9 10 10 15 19 20 20 22 18 12 12 12 12 13 13 13 12 12 11 13 14 13 14 15 20 23 21 18 13 12 12 12 10 8 7 6 6 11 14 15 17 15 13 14 15 13 15 17 12 11 8 8 10 9 11 9 6
4 4 4 4 4 4 4 4 4 4 5 6 6 5 5 4 4 3 4 5 6 5 5 7 7 7 8 9 9 9 10 14 19 20 21 21 18 13 13 13 14 13 13 12 11 11 13 22 20 13 14 16 23 22 20 16 12 12 10 12 11 8 8 4 3 3 2 4 11 15 16 16 17 17 17 18 18 14 13 14 13 10 12 12 11
4 4 4 3 4 4 4 4 4 5 5 5 5 6 6 5 4 5 5 5 5 5 6 7 7 7 8 7 12 10 9 12 17 19 21 21 18 12 11 12 13 13 13 12 11 11 12 14 20 17 17 20 25 23 21 16 11 12 11 11 11 9 9 9 8 6 5 5 5 7 6 9 11 10 9 15 17 16 14 14 11 12 13 12 10
4 4 3 3 3 4 4 5 5 5 6 5 6 6 4 5 7 6 6 6 6 5 5 6 7 7 7 7 8 8 9 10 13 19 19 21 21 14 10 11 13 15 13 13 13 13 12 13 14 18 24 24 22 22 21 20 13 12 11 11 11 12 6 8 8 9 8 8 7 7 8 7 7 6 6 7 7 7 8 8 11 14 14 13 13
2 1 1 2 3 4 4 5 6 5 5 5 4 4 5 6 6 6 6 6 6 7 6 5 6 7 7 7 7 8 9 10 12 18 18 19 21 18 11 12 12 12 12 12 11 12 12 12 11 19 25 25 23 23 22 21 19 12 12 11 11 8 10 7 6 7 7 6 6 6 6 6 6 5 6 5 5 5 4 2 6 11 12 11 9
4 4 4 2 1 3 5 5 5 5 4 5 5 5 4 5 5 5 6 6 7 7 6 6 6 7 7 7 7 8 9 13 11 15 18 20 19 20 13 12 13 11 12 11 12 11 12 12 13 19 24 24 23 22 24 24 23 12 11 16 11 13 12 7 8 8 7 7 6 6 6 7 6 5 5 5 4 4 4 4 4 4 2 5 13
6 6 5 4 1 1 4 5 4 4 4 4 5 5 4 5 5 5 5 6 6 6 7 7 7 7 7 8 7 7 8 9 15 13 17 19 19 18 19 15 19 12 10 11 13 13 11 12 14 22 22 23 23 22 22 25 18 16 19 8 12 17 11 8 8 9 8 7 7 7 6 6 7 6 6 6 5 6 7 7 7 8 8 8 9
6 7 6 5 4 2 4 5 4 4 4 4 5 6 5 4 4 5 5 5 6 7 7 7 7 8 8 9 8 8 8 8 11 15 15 18 18 18 18 19 19 13 11 9 11 11 12 13 15 21 21 22 22 22 21 24 19 25 24 25 16 9 6 8 7 8 9 9 8 7 6 6 7 7 7 6 7 8 9 9 9 9 10 10 10
7 7 6 5 4 3 4 4 4 3 3 4 4 4 4 4 5 5 5 5 5 6 6 6 7 7 8 9 9 9 9 8 9 12 16 16 17 17 18 18 19 19 13 11 12 12 16 20 20 20 19 21 21 20 18 21 25 23 26 25 20 10 8 4 8 8 8 8 9 8 7 6 7 8 6 7 9 9 11 10 10 10 11 12 11
7 6 6 5 4 4 5 4 4 3 3 4 4 3 4 3 4 5 5 5 4 5 6 6 7 7 8 8 9 9 9 8 9 10 9 11 11 15 17 17 18 18 16 13 17 18 18 19 20 19 15 16 14 14 14 16 21 24 25 23 16 14 12 9 4 12 11 9 8 9 7 6 7 7 5 6 10 9 8 9 9 8 8 10 12
6 6 5 5 5 4 4 4 3 3 3 4 5 3 3 3 3 3 3 3 4 4 5 5 7 7 8 9 8 8 8 9 10 10 10 10 9 9 10 10 14 14 12 12 13 12 14 15 13 15 16 19 19 17 17 18 18 18 15 14 15 14 13 12 8 9 11 10 9 7 7 7 5 7 7 9 10 8 6 8 10 8 9 9 12
6 5 5 4 4 4 3 4 4 3 3 3 4 3 2 1 3 1 1 2 3 5 4 6 6 6 7 7 8 8 9 9 10 11 11 10 10 9 8 8 10 9 10 11 10 11 11 12 14 13 13 14 15 14 14 13 13 14 14 13 13 15 16 18 14 11 11 9 8 7 8 8 9 8 8 9 9 8 6 8 8 8 5 8 11
5 5 6 6 5 3 3 3 2 3 3 3 2 0 1 1 3 1 4 3 2 1 5 5 5 5 5 6 7 8 8 10 10 11 12 14 13 10 9 9 8 9 12 15 11 11 12 13 13 14 13 13 13 13 13 13 14 14 17 16 14 14 14 12 13 12 11 12 11 9 9 8 9 8 8 10 9 8 6 9 8 9 8 10 12
5 5 4 5 4 4 5 3 3 2 2 3 1 1 4 3 2 2 2 4 6 7 5 3 4 4 5 7 4 4 6 7 12 16 16 17 17 16 14 15 14 11 14 15 10 10 11 11 12 12 12 12 12 12 12 12 12 12 12 14 14 13 13 12 11 10 10 11 10 10 10 9 9 9 9 10 9 9 9 9 8 8 11 10 11
5 4 4 4 3 3 3 4 2 2 2 2 1 1 3 2 2 1 3 5 4 6 6 8 9 6 2 4 7 9 9 11 14 14 16 17 17 17 16 15 17 15 14 11 11 11 11 11 11 11 11 11 11 11 11 11 11 11 11 10 11 12 12 11 11 11 11 10 10 9 9 10 9 9 10 9 9 9 9 8 9 10 10 10 10
4 3 3 3 3 3 3 3 3 4 3 3 3 2 1 2 2 4 6 6 5 5 7 8 9 9 8 5 4 6 9 12 15 15 16 17 17 17 16 17 17 16 14 10 9 11 10 10 10 10 10 11 11 10 10 10 10 10 10 11 11 10 11 11 10 10 10 10 10 10 10 10 10 10 9 9 9 9 9 9 9 10 10 10 10
4 4 3 3 3 3 3 3 3 3 4 4 4 3 3 3 2 4 4 4 6 8 8 9 9 9 8 8 7 7 8 11 14 15 16 16 17 16 15 16 16 16 12 10 9 10 10 11 11 10 10 10 10 10 10 10 10 10 10 10 10 10 10 10 11 11 9 9 9 9 9 8 8 8 8 8 8 8 8 8 8 8 9 9 8
4 4 3 3 4 4 4 3 3 3 2 2 2 2 1 1 2 0 3 6 5 4 5 7 8 7 8 8 8 9 10 12 13 15 15 16 16 15 12 12 14 15 11 8 9 9 9 10 10 10 10 10 10 10 10 10 10 10 10 10 9 9 10 10 11 10 9 9 9 9 9 9 8 8 7 7 7 7 8 7 7 7 7 7 7
3 4 5 3 3 3 2 3 3 3 4 3 3 3 2 0 1 1 1 2 3 2 2 4 6 5 4 6 8 9 10 11 13 14 15 15 15 15 13 10 9 10 9 8 8 7 8 8 8 8 8 9 9 9 9 10 9 9 9 9 9 9 9 9 9 9 10 9 10 9 8 8 7 7 7 7 7 8 7 7 7 6 7 6 7
3 3 2 2 2 2 3 2 3 4 3 3 3 2 0 1 3 2 1 0 1 2 1 1 2 6 7 9 9 9 10 11 13 13 13 14 13 12 9 8 8 8 8 8 7 7 6 6 5 6 6 6 6 7 8 8 8 8 8 8 8 8 8 8 9 9 9 9 9 10 9 9 9 8 8 8 8 7 7 7 7 6 7 6 5
3 3 1 0 0 2 2 2 3 4 4 3 3 2 3 3 2 2 3 3 3 1 1 2 5 6 6 5 7 8 10 11 12 12 13 13 14 9 7 7 7 8 8 8 7 7 7 7 6 6 6 6 6 5 6 7 7 8 8 8 7 7 7 7 7 7 8 8 8 8 8 8 7 7 6 7 6 6 6 6 6 6 6 6 6
4 4 3 2 0 1 3 2 3 3 2 3 2 3 1 2 1 1 2 4 2 1 1 1 2 3 3 4 4 4 5 8 10 10 10 10 9 8 7 7 7 7 7 7 7 6 7 6 6 6 7 6 7 7 7 6 6 6 6 7 7 7 9 8 8 7 7 7 7 7 6 6 7 6 6 7 6 5 5 5 6 5 5 5 5
3 4 3 3 1 0 2 3 2 2 1 1 1 0 0 0 1 2 3 3 3 2 2 2 1 2 3 1 3 4 5 7 7 6 6 6 6 6 6 7 7 8 8 7 7 7 7 7 7 7 6 6 7 6 6 6 6 5 6 6 7 7 8 7 7 7 7 7 7 6 6 6 5 5 6 6 5 4 4 4 4 4 5 5 4
1 1 3 3 2 1 2 4 4 3 2 1 1 1 1 0 0 1 1 2 3 2 2 1 1 1 1 0 1 3 6 4 4 5 5 6 6 6 6 6 6 6 7 8 7 7 7 7 7 7 7 7 7 6 6 6 6 6 6 6 6 7 7 7 7 7 7 6 6 6 6 6 5 5 5 5 5 4 5 4 3 3 4 5 5
2 1 2 2 1 0 3 2 4 4 5 3 2 1 2 2 1 1 0 2 3 2 2 2 2 1 1 2 3 3 4 3 3 3 4 3 4 5 6 6 6 7 7 7 7 6 6 6 6 6 6 6 6 6 6 6 6 6 6 6 6 6 7 7 7 7 7 6 6 6 5 5 5 5 5 4 4 5 5 5 4 4 4 4 5
2 1 2 1 0 1 2 1 1 1 3 1 1 1 2 0 1 1 0 2 3 2 2 2 2 1 3 5 4 4 3 1 1 3 4 3 4 5 4 5 5 5 6 6 6 6 6 6 6 6 6 6 6 6 6 6 5 6 6 6 6 6 6 6 6 7 6 6 6 6 6 5 5 5 4 4 5 4 5 5 4 4 4 5 4
1 1 0 2 1 2 3 2 1 1 2 3 4 3 0 2 2 1 1 2 1 2 1 0 1 2 3 3 2 2 1 1 2 2 3 3 3 3 4 4 5 5 4 5 5 4 4 5 5 6 6 6 6 6 6 6 6 6 6 6 6 6 6 6 7 8 7 6 6 6 6 5 6 5 5 5 5 5 5 5 4 4 4 4 4
2 1 2 3 1 4 2 2 2 0 1 2 1 2 1 3 3 2 1 2 2 2 1 1 2 3 3 1 0 0 0 0 1 2 2 2 2 3 3 4 4 5 5 5 6 5 5 5 5 5 5 6 6 6 6 6 6 6 6 6 6 7 7 6 6 7 6 6 6 6 6 5 5 5 5 4 4 5 5 5 5 4 4 3 4
2 3 2 3 1 3 1 1 0 1 0 3 6 4 1 3 3 2 1 1 2 1 0 1 2 4 3 2 2 1 1 1 1 1 2 2 2 2 3 3 3 3 4 5 5 5 5 5 5 5 6 5 5 5 5 5 5 5 5 5 5 6 6 6 5 5 4 6 5 6 6 6 6 5 5 5 4 4 4 3 3 4 5 4 4
2 2 2 3 2 2 1 0 2 2 4 5 4 3 1 2 2 0 0 0 1 1 1 2 2 3 5 4 3 3 3 2 2 2 2 2 2 2 3 3 3 3 4 4 4 3 4 5 5 5 4 4 4 4 5 4 5 5 5 4 3 3 4 4 4 5 6 6 5 5 5 5 5 5 5 5 4 4 4 3 3 3 3 4 4
2 2 2 2 3 3 2 1 3 2 4 4 3 4 4 4 3 1 1 2 2 1 2 3 3 3 4 4 4 5 4 3 3 3 3 3 3 4 3 3 3 4 5 5 4 3 4 4 5 4 4 3 4 5 5 4 4 4 4 5 5 5 5 5 5 4 5 5 4 5 5 5 5 5 5 5 5 4 4 5 4 4 3 3 3
2 2 2 2 3 4 3 2 3 3 3 4 4 5 5 4 2 1 1 2 3 2 2 3 3 3 4 5 5 5 4 3 3 3 3 3 3 3 4 3 2 3 4 5 5 5 4 3 3 4 3 3 3 3 4 4 4 4 4 4 4 4 6 6 5 5 5 5 5 5 4 5 4 5 4 5 5 6 6 5 3 3 4 3 2
2 2 1 1 3 5 4 4 4 4 4 5 4 5 5 4 3 2 3 3 3 3 4 5 4 3 4 6 4 5 3 3 4 5 4 4 4 4 4 4 4 3 3 4 5 4 5 3 3 3 2 1 1 2 2 3 4 3 4 4 5 8 7 7 5 5 6 5 4 5 4 4 4 4 4 5 5 5 5 4 4 3 3 3 4
2 2 1 0 2 5 6 5 6 6 4 4 5 5 5 4 4 4 4 2 2 3 3 4 4 3 2 3 4 5 5 5 6 6 6 5 4 4 3 4 4 4 4 4 5 5 4 3 4 3 1 0 0 0 0 1 1 2 2 4 6 7 7 7 7 8 6 4 5 4 4 3 3 4 5 4 4 5 5 4 4 4 4 4 4
2 2 2 1 2 4 5 6 5 5 5 5 5 4 5 5 5 5 5 3 2 1 3 5 4 2 2 4 5 5 5 6 6 6 6 5 5 4 4 4 5 4 4 4 5 4 3 2 3 1 1 1 1 1 1 1 2 2 4 5 6 7 7 7 6 7 7 5 4 4 5 5 4 5 5 5 4 4 4 4 4 4 2 2 3
Wind_Direction
56 52 49 45 50 49 47 44 44 42 43 39 42 38 37 36 35 29 24 27 19 17 14 15 11 12 9 7 4 7 20 3 3 358 355 347 344 338 336 338 333 327 324 314 287 256 247 241 244 242 237 235 232 227 222 217 211 205 199 199 203 208 205 211 215 233 263 239 188 193 192 176 186 186 183 183 172 190 190 184 177 180 184 184 187
56 53 50 48 47 44 42 44 45 46 49 42 39 35 40 44 36 33 31 27 23 22 18 17 15 13 16 11 7 17 16 11 6 357 353 346 339 339 333 332 329 322 320 318 318 302 258 241 239 243 238 238 236 234 224 221 213 206 204 200 201 205 204 208 215 213 217 206 255 234 185 183 189 186 183 181 184 181 185 181 182 182 184 182 181
60 59 55 52 50 46 48 43 44 45 45 42 40 33 36 46 43 36 34 27 27 30 22 21 18 18 20 17 12 20 19 10 2 359 348 341 336 330 327 324 319 317 316 313 313 313 295 260 250 244 239 241 239 236 228 219 211 207 206 201 204 209 200 209 212 213 213 217 190 185 202 193 197 187 190 187 183 180 181 183 182 183 189 183 183
64 61 59 57 54 57 56 56 57 51 47 39 37 30 28 39 43 41 34 30 34 32 30 25 22 24 24 20 17 16 11 2 353 349 348 341 335 326 321 319 313 308 305 303 305 308 305 282 261 254 248 245 239 236 230 224 218 203 207 203 204 209 200 205 214 212 209 208 204 202 200 186 207 193 186 181 182 185 187 181 176 184 184 184 185
66 63 63 63 56 61 61 63 65 60 55 44 38 30 24 23 34 37 30 31 35 35 31 31 28 28 24 22 18 13 1 357 354 348 341 340 335 325 318 314 310 307 302 298 299 300 302 299 278 260 251 247 241 238 232 227 222 217 208 205 206 205 205 206 207 211 194 199 201 203 173 186 190 180 170 175 179 169 191 177 187 185 179 180 184
68 69 66 70 66 62 62 63 62 63 60 51 44 37 31 29 30 31 28 27 34 39 35 30 31 30 29 25 17 8 5 0 356 348 341 331 324 320 318 315 309 306 305 301 298 297 296 297 294 275 259 248 245 240 238 233 225 220 213 210 206 202 203 206 199 199 207 210 186 153 207 180 168 177 180 174 167 177 186 169 117 151 167 177 198
69 75 72 73 67 59 55 56 60 60 57 55 48 44 41 36 33 31 24 24 33 41 34 31 29 30 26 18 13 9 5 2 355 350 344 338 330 327 325 317 313 310 308 307 303 299 293 293 294 286 267 251 246 244 241 240 231 229 222 217 199 200 204 201 200 199 206 210 195 184 195 204 171 170 184 173 182 184 171 152 174 184 188 186 187
72 68 66 63 59 54 50 47 50 49 50 49 48 44 43 39 37 32 28 28 32 37 31 24 17 16 15 13 8 8 8 3 1 353 346 340 335 327 325 322 317 315 310 306 305 301 297 296 294 292 280 261 246 240 236 238 233 235 229 224 211 205 200 200 197 200 203 206 198 190 202 190 188 141 134 149 146 111 193 185 186 186 193 196 193
72 61 58 57 53 53 49 50 46 43 36 38 40 39 37 37 36 35 33 34 31 29 27 18 14 13 9 8 6 6 9 5 3 354 346 341 337 329 332 328 322 314 314 310 302 301 298 297 297 295 295 290 267 249 241 224 226 234 229 222 218 211 204 197 197 197 199 199 201 194 193 194 190 167 158 174 181 192 190 195 202 194 183 180 198
67 58 54 52 53 54 56 53 49 44 41 36 31 32 33 34 35 34 34 33 32 27 23 18 16 13 8 3 3 3 6 5 358 354 351 349 337 334 324 326 332 327 321 319 313 307 300 297 300 303 302 294 279 262 250 237 229 227 233 232 221 217 213 202 196 199 196 201 190 188 192 199 192 188 183 193 193 177 172 188 200 186 157 175 99
66 63 58 51 54 56 57 54 48 47 40 38 35 34 29 32 34 33 32 29 29 27 22 21 17 13 11 5 1 1 0 1 355 352 350 350 347 340 340 337 330 332 334 334 334 332 333 331 323 312 304 296 284 267 255 246 237 233 234 235 238 229 213 212 201 194 198 202 195 193 192 193 197 193 195 193 189 181 188 192 190 167 178 172 187
70 62 60 54 54 56 56 57 51 47 44 38 36 36 33 31 36 34 32 29 23 22 25 22 17 13 9 6 3 359 356 357 355 354 352 350 349 342 337 341 334 333 336 337 332 333 331 329 332 333 327 326 318 288 261 250 245 240 238 237 239 245 239 213 198 195 198 198 201 198 193 199 196 196 197 188 186 193 197 190 187 183 185 188 188
76 69 62 61 57 57 58 59 55 49 44 39 34 39 40 37 33 31 30 23 18 23 17 15 15 7 8 5 1 357 352 356 356 354 353 351 347 343 340 341 338 334 336 336 332 334 333 331 331 330 328 331 332 321 299 266 252 245 239 241 240 237 239 239 218 198 191 196 202 202 200 194 199 204 197 190 184 191 187 190 193 194 194 194 196
79 77 70 69 67 63 60 58 53 47 41 38 37 36 39 37 32 29 26 18 21 17 9 11 5 6 2 1 355 353 352 356 356 355 353 352 347 343 340 341 343 339 337 337 331 331 330 331 333 330 330 327 323 332 338 323 298 254 239 222 226 238 234 231 224 206 195 198 199 207 202 198 204 202 200 189 184 188 186 195 194 193 194 202 197
81 81 77 70 69 65 63 57 54 46 39 39 37 37 34 29 28 24 26 19 18 12 5 1 360 358 354 354 353 355 352 352 357 356 354 353 348 346 344 340 343 339 339 337 336 331 329 322 328 329 326 326 321 331 328 320 316 302 263 238 230 234 227 220 215 214 207 207 208 207 201 199 196 193 197 208 201 191 191 193 192 191 181 95 75
94 87 76 71 68 69 72 63 55 45 39 37 39 28 27 23 27 16 24 16 11 8 3 1 356 351 347 351 354 356 350 353 358 357 356 355 351 353 347 344 344 343 339 341 340 336 330 327 332 330 331 324 324 326 323 316 303 301 286 253 241 234 232 226 213 210 208 209 210 206 206 190 193 190 173 187 204 208 6 38 61 83 109 152 165
105 99 96 85 76 72 75 75 63 52 42 43 36 29 21 8 10 11 28 18 16 12 9 360 350 349 350 354 356 354 350 352 356 357 357 356 355 354 350 347 345 341 338 337 338 336 334 334 337 333 330 327 326 324 320 320 303 296 289 269 242 229 218 219 220 222 230 219 215 202 180 189 192 178 173 188 194 183 155 166 188 163 167 177 187
125 114 113 107 91 83 85 84 76 59 51 46 37 27 21 16 12 5 27 12 14 5 2 1 356 356 355 355 354 355 348 349 355 355 357 358 359 355 351 348 344 341 334 333 337 338 335 336 338 336 330 328 327 322 320 317 300 286 279 274 252 214 210 189 146 217 220 231 229 203 184 184 189 187 188 192 188 174 174 191 186 172 187 178 185
138 136 140 128 101 91 91 87 84 72 60 46 41 32 23 24 9 15 12 9 7 359 5 4 356 357 355 352 348 356 346 348 353 354 355 357 1 357 353 349 346 342 336 331 336 338 336 337 335 335 336 329 326 324 323 319 292 279 265 265 250 217 210 180 178 164 161 148 129 132 158 175 183 188 195 202 197 186 191 193 175 183 190 190 170
173 166 147 112 105 86 82 85 83 78 65 50 39 33 21 25 20 19 14 13 3 359 354 0 -0 353 347 350 348 348 348 348 350 352 354 354 358 360 353 352 349 341 339 337 335 336 337 336 334 336 338 333 328 328 327 324 303 266 253 246 240 230 180 176 191 183 175 169 165 159 153 149 150 161 158 161 174 184 197 193 183 188 193 184 178
88 68 50 75 95 82 72 89 90 79 78 72 54 37 29 28 20 22 15 5 10 6 0 352 356 350 346 347 346 347 347 349 345 349 352 354 353 359 355 355 347 339 336 336 334 331 333 334 332 336 337 335 334 336 338 336 327 284 247 233 228 213 152 165 154 162 146 133 126 122 121 114 116 126 135 138 144 150 168 170 182 200 190 176 171
93 81 64 39 26 74 75 76 91 100 84 68 59 39 21 31 27 23 16 16 14 6 359 351 348 344 341 343 345 340 339 341 347 345 350 352 351 352 358 351 348 340 338 337 336 335 331 330 333 335 336 338 339 341 347 350 344 329 260 253 228 159 162 153 141 131 127 119 118 111 113 114 107 102 101 99 90 84 84 94 96 88 86 167 177
64 69 66 48 11 82 84 85 94 97 86 80 77 54 29 29 21 22 20 13 14 7 357 349 347 342 339 342 338 337 339 339 345 347 348 350 349 349 348 348 350 352 344 337 339 335 329 332 329 333 338 342 345 346 353 1 360 353 2 313 186 151 130 131 131 128 119 117 111 105 100 101 101 96 93 86 77 80 78 78 76 81 78 70 68
61 56 58 59 47 23 68 77 83 94 104 87 72 66 40 28 28 21 15 19 12 6 355 348 348 349 347 339 340 339 339 341 339 347 349 349 348 347 346 346 350 353 347 341 338 333 338 335 330 333 343 348 351 352 358 9 6 9 19 25 25 48 94 116 114 117 114 104 92 84 81 88 94 89 86 89 88 86 81 77 77 85 90 80 71
61 58 55 58 59 49 54 65 61 71 86 90 79 68 53 40 33 6 18 15 11 8 350 349 352 344 342 344 338 338 338 338 341 346 350 348 346 346 345 345 352 352 353 345 342 339 337 337 338 343 345 352 352 -0 3 7 8 16 24 26 26 28 12 54 102 97 83 84 99 86 61 53 80 86 78 96 99 87 81 72 77 79 83 80 72
52 46 52 58 55 57 71 57 48 41 52 69 81 79 87 63 51 13 17 7 2 5 352 351 353 349 347 343 342 337 337 342 347 349 351 345 345 344 345 344 352 352 353 346 341 340 341 343 345 348 351 356 2 7 7 6 10 18 24 27 31 22 12 355 55 87 83 69 59 79 85 81 66 77 83 80 78 77 91 98 90 73 75 85 80
59 51 41 28 29 54 84 86 63 28 27 53 67 65 64 77 66 38 5 2 355 1 354 356 353 353 352 346 340 339 345 350 353 352 352 353 351 347 347 345 351 353 354 351 348 347 346 349 347 352 1 4 10 9 12 8 16 16 18 27 31 25 17 9 356 68 82 80 70 60 64 67 68 68 68 68 70 57 57 89 88 81 85 83 88
66 51 50 64 52 13 42 109 110 68 28 43 57 44 30 88 92 79 342 305 359 359 353 352 352 350 342 340 340 344 353 356 357 355 351 353 352 350 346 345 354 353 355 351 346 345 349 349 357 5 6 11 9 12 10 11 16 18 18 19 26 31 22 13 9 38 55 63 67 61 60 58 63 62 62 65 62 56 48 74 86 83 67 99 87
67 52 40 43 24 41 28 16 78 123 94 64 46 69 213 191 147 235 252 202 220 289 339 329 338 335 330 338 347 348 357 359 350 345 350 356 359 357 352 352 352 355 356 352 350 355 1 4 6 7 11 7 12 13 11 12 12 15 19 18 19 25 25 23 15 20 31 49 49 47 55 58 60 55 62 64 53 50 39 71 62 83 78 79 87
71 62 58 48 26 30 41 32 23 57 138 126 78 330 296 282 259 185 237 240 235 246 232 256 294 313 327 324 346 352 346 327 338 354 359 1 358 357 356 359 359 355 357 354 2 9 7 6 6 6 5 10 12 14 12 14 15 17 17 19 21 22 23 18 16 15 25 41 45 46 47 52 56 54 59 62 57 49 39 55 69 71 76 75 82
76 62 59 54 41 47 50 46 23 55 62 101 132 213 289 300 172 173 253 269 286 292 285 276 286 279 244 294 326 340 347 353 359 1 6 3 358 357 359 4 360 355 356 359 12 16 8 8 7 5 6 8 12 12 10 14 19 19 19 20 23 21 21 24 12 10 19 27 37 46 50 52 53 49 55 52 59 56 51 44 62 68 75 77 78
93 88 88 72 59 43 49 64 24 32 54 74 74 85 77 28 327 265 248 265 280 287 292 304 309 324 342 349 341 342 352 3 6 8 9 8 1 360 359 7 0 357 348 355 21 19 12 11 9 9 6 10 9 9 12 16 17 20 17 24 23 20 21 21 11 23 22 24 29 34 37 40 42 41 44 46 52 54 54 55 57 65 67 64 65
109 92 86 75 69 49 34 31 28 46 24 31 29 42 68 80 56 349 322 270 265 268 285 293 302 318 341 356 17 16 4 6 9 10 13 10 7 0 358 7 3 357 358 18 24 19 18 14 13 11 11 13 10 10 13 15 17 18 20 21 22 17 20 16 20 28 25 24 33 37 37 40 43 48 46 45 48 54 52 55 54 60 68 74 63
135 126 106 108 83 48 21 25 22 29 44 94 117 98 77 162 178 161 14 359 348 329 294 280 288 317 346 18 23 13 8 14 12 12 13 10 9 2 7 6 359 5 17 18 17 22 17 18 17 16 12 14 12 11 14 14 15 17 17 20 19 17 15 16 28 26 24 25 31 29 33 35 35 42 44 47 51 59 63 61 63 70 66 74 84
143 122 123 119 95 75 32 45 58 62 63 74 66 71 62 291 196 166 77 46 2 313 295 319 331 11 15 17 20 12 11 13 13 12 14 11 8 3 17 9 3 3 12 13 16 19 18 18 15 11 13 12 8 9 11 11 13 14 14 13 16 16 19 21 24 25 28 26 29 32 34 38 39 44 48 50 49 56 59 63 61 69 79 76 79
132 103 89 88 92 87 48 51 114 118 115 114 119 101 145 53 25 338 292 331 67 345 334 296 280 299 9 32 25 14 9 11 13 9 11 13 10 17 20 3 3 2 5 5 6 4 14 12 9 5 4 7 7 8 5 6 7 11 11 14 15 16 18 20 20 27 29 34 31 29 33 37 35 37 41 48 55 62 68 68 71 69 75 77 73
160 129 118 157 153 111 94 81 123 149 162 159 118 69 27 27 20 341 9 358 12 307 265 297 346 355 10 16 13 2 3 11 9 7 7 12 13 20 18 7 4 360 2 359 359 353 4 3 1 355 355 355 355 354 356 359 0 4 6 10 10 18 22 22 22 22 29 33 34 33 35 34 35 37 42 49 46 55 63 70 70 72 76 81 82
179 173 186 204 45 48 93 118 147 157 161 141 161 133 107 67 17 353 2 352 345 354 328 309 340 17 26 351 344 -0 341 9 2 7 3 10 11 9 4 6 7 8 356 352 358 353 349 355 3 3 355 356 351 349 352 354 358 3 5 5 11 13 13 17 17 20 21 27 27 26 30 32 28 30 41 54 50 52 58 74 90 88 73 69 82
212 192 244 295 133 271 118 164 194 167 215 193 239 145 180 89 10 12 349 349 340 347 312 293 302 331 353 338 5 321 15 20 10 -0 352 357 6 7 3 6 6 4 358 353 351 356 353 350 349 356 359 1 358 356 360 356 2 6 6 12 13 10 12 12 14 15 17 15 14 11 18 22 27 35 39 45 44 48 65 71 71 80 89 81 79
288 304 286 289 316 329 149 177 180 181 232 240 288 286 310 103 235 268 326 332 322 318 303 284 286 296 351 98 7 20 53 22 2 343 353 2 2 2 10 4 1 4 360 354 354 351 355 355 353 359 360 360 358 355 359 1 4 10 19 26 23 19 15 15 14 16 16 14 16 10 12 5 5 20 46 44 52 59 69 70 59 66 85 94 90
160 211 283 262 231 270 99 129 171 219 220 241 300 315 273 265 247 212 338 288 283 302 297 274 253 259 125 152 179 127 96 54 348 347 344 356 358 4 1 0 356 358 358 359 355 356 355 357 1 2 1 358 354 359 2 13 16 29 31 27 29 25 19 18 16 15 12 13 8 6 6 16 21 31 32 23 53 71 73 82 73 63 65 73 88
121 86 23 40 26 166 101 156 196 236 233 221 272 334 345 276 223 169 307 296 281 301 299 291 280 305 145 157 149 129 94 65 359 357 340 350 4 348 348 355 356 352 350 349 351 352 354 358 358 359 359 355 357 359 1 10 26 42 36 31 28 26 25 19 16 16 13 7 7 3 1 16 37 54 58 64 70 73 77 75 82 79 73 75 74
150 107 200 115 167 213 156 176 193 300 20 10 332 332 217 123 162 195 222 266 280 294 279 263 39 74 131 175 160 129 85 69 352 333 326 331 341 344 344 345 340 335 330 332 338 346 349 353 358 355 353 354 353 359 11 7 0 15 23 30 30 27 23 16 17 14 8 12 11 7 6 13 23 37 53 69 76 69 68 80 78 76 75 81 84
149 180 138 151 156 263 236 151 167 216 70 283 64 41 62 116 178 195 198 276 356 316 259 234 146 127 155 223 312 45 74 337 331 314 308 314 324 323 321 325 339 348 350 348 345 348 360 1 357 352 1 7 5 16 26 21 22 27 17 14 23 23 20 17 11 6 1 10 15 16 13 16 40 50 49 37 56 73 67 74 81 80 86 85 84
170 94 105 142 233 254 264 268 129 115 94 36 52 37 14 135 175 220 219 311 343 332 299 220 172 148 161 215 243 220 236 247 267 289 291 285 292 298 305 321 332 342 340 338 336 346 2 1 354 2 4 359 7 24 25 23 29 33 24 29 31 20 4 354 344 324 348 28 23 22 22 26 26 31 42 47 50 61 57 53 74 102 92 84 92
131 111 126 156 227 271 236 59 90 105 89 80 79 92 161 206 189 185 258 54 71 125 156 157 165 160 172 197 226 245 251 250 260 256 269 275 274 277 280 293 315 325 322 315 320 344 356 8 355 355 350 348 353 14 23 23 21 21 22 27 21 -0 330 325 325 352 11 22 24 26 28 36 42 41 39 37 42 57 61 54 49 58 80 93 100
171 125 152 162 190 238 212 166 132 127 112 91 114 130 164 199 215 217 93 109 101 114 146 171 155 171 184 202 208 231 229 219 230 238 238 246 259 265 274 291 319 325 322 322 322 340 353 11 350 343 339 341 352 3 11 20 18 9 10 12 13 11 6 352 355 359 358 358 21 35 33 39 37 37 42 55 58 51 59 43 47 55 49 76 85
199 144 162 155 174 238 236 156 159 177 130 122 153 164 175 192 202 180 166 142 115 124 165 202 194 196 197 216 223 229 223 218 233 238 240 245 255 265 274 276 291 297 308 316 320 331 340 18 337 331 338 344 4 5 359 359 15 12 4 6 10 6 4 4 2 6 355 353 15 34 25 29 38 43 37 53 55 52 56 35 35 42 40 31 29
176 125 115 143 189 225 228 210 178 187 186 160 165 182 174 179 181 185 207 183 148 170 184 191 222 199 199 221 218 226 228 219 232 247 246 247 253 263 265 274 276 286 303 307 308 317 324 -0 338 326 324 347 3 27 354 350 5 12 3 354 350 353 8 16 17 7 351 348 6 26 30 31 48 57 48 50 53 68 78 64 57 35 27 43 41
196 129 121 159 206 240 231 208 187 198 198 174 165 179 186 180 173 197 202 206 163 152 218 210 205 221 193 211 221 224 213 216 223 234 240 246 248 254 266 278 284 286 284 283 295 303 325 353 325 337 298 241 342 5 320 303 309 354 5 353 343 350 -0 5 15 13 13 355 353 12 28 26 37 57 55 57 55 59 57 49 42 43 52 54 40
232 145 132 167 228 245 239 219 196 189 198 194 179 174 182 193 189 197 192 187 180 190 191 203 211 231 245 218 212 202 207 215 219 224 231 235 237 245 253 263 270 280 288 287 288 292 312 336 318 310 234 217 254 255 268 285 305 327 0 1 355 349 358 9 3 350 360 6 356 12 35 26 33 43 43 39 39 53 64 64 48 42 35 72 78